Weather History for KCCY - March, 2013

Change the Weather History Date:

Monday, March 4, 2013

  Actual Average (KMCW) Record (KMCW)
Temperature  
Mean Temperature 26 °F 28 °F  
Max Temperature 30 °F 36 °F 65 °F (2000)
Min Temperature 23 °F 19 °F -8 °F (1978)
Degree Days  
Heating Degree Days 38 37  
Month to date heating degree days 152  
Since 1 July heating degree days 6003  
Cooling Degree Days 0 0  
Month to date cooling degree days 0  
Year to date cooling degree days 0  
Moisture  
Dew Point 21 °F    
Average Humidity 81    
Maximum Humidity 93    
Minimum Humidity 64    
Precipitation  
Precipitation 0.00 in 0.05 in 1.00 in (1923)
Month to date precipitation 0.21  
Year to date precipitation 2.03  
Snow  
Snow 0.00 in 0.30 in 5.00 in (1962)
Month to date snowfall 1.0  
Since 1 July snowfall 33.5  
Snow Depth -    
Sea Level Pressure  
Sea Level Pressure 29.93 in    
Wind  
Wind Speed 16 mph (ESE)    
Max Wind Speed 26 mph    
Max Gust Speed 30 mph    
Visibility 6 miles    
Events Rain , Snow    
T = Trace of Precipitation, MM = Missing Value Source: NWS Daily Summary

Daily Weather History Graph

Daily Weather History Graph

Search for Another Location

Airport or City:

Trip Planner

Search our weather history database for the weather conditions in past years. The results will help you decide how hot, cold, wet, or windy it might be!

Date:

Astronomy

Mar. 04, 2013 Rise Set
Actual Time 6:41 AM CST 6:03 PM CST
Civil Twilight 6:12 AM CST 6:32 PM CST
Nautical Twilight 5:39 AM CST 7:05 PM CST
Astronomical Twilight 5:06 AM CST 7:38 PM CST
Moon 12:57 AM CST 10:39 AM CST
Length of Visible Light 12h 19m
Length of Day
11h 22m
Waning Gibbous, 52% of the Moon is Illuminated
Mar 4
Waning Gibbous
Mar 4
Last Quarter
Mar 11
New
Mar 19
First Quarter
Mar 27
Full

Hourly Weather History & Observations

Time (CST) Temp. Windchill Dew Point Humidity Pressure Visibility Wind Dir Wind Speed Gust Speed Precip Events Conditions
12:15 AM 24.8 °F 12.9 °F 14.0 °F 64% 29.99 in 10.0 mi SSE 13.8 mph - N/A   Overcast
12:35 AM 24.8 °F 12.9 °F 14.0 °F 64% 29.99 in 10.0 mi SE 13.8 mph - N/A   Overcast
12:55 AM 24.8 °F 13.4 °F 14.0 °F 64% 29.98 in 10.0 mi SE 12.7 mph - N/A   Overcast
1:15 AM 24.8 °F 12.4 °F 14.0 °F 64% 29.98 in 10.0 mi SE 15.0 mph - N/A   Overcast
1:35 AM 24.8 °F 12.9 °F 14.0 °F 64% 29.98 in 10.0 mi SE 13.8 mph 19.6 mph N/A   Overcast
1:55 AM 24.8 °F 11.9 °F 15.8 °F 69% 29.97 in 6.0 mi SE 16.1 mph - N/A   Haze
2:15 AM 24.8 °F 10.0 °F 15.8 °F 69% 29.95 in 3.0 mi SE 21.9 mph - N/A Rain Light Freezing Rain
2:35 AM 23.0 °F 9.6 °F 17.6 °F 80% 29.94 in 1.8 mi SE 16.1 mph 23.0 mph N/A Snow Light Snow
2:55 AM 23.0 °F 9.6 °F 17.6 °F 80% 29.94 in 1.2 mi ESE 16.1 mph - N/A Snow Light Snow
3:15 AM 23.0 °F 9.2 °F 19.4 °F 86% 29.93 in 1.0 mi ESE 17.3 mph 23.0 mph N/A Snow Light Snow
3:35 AM 23.0 °F 10.1 °F 19.4 °F 86% 29.92 in 1.2 mi ESE 15.0 mph 21.9 mph N/A Snow Light Snow
3:55 AM 23.0 °F 9.2 °F 19.4 °F 86% 29.92 in 1.0 mi ESE 17.3 mph - N/A Snow Light Snow
4:15 AM 23.0 °F 8.7 °F 19.4 °F 86% 29.92 in 1.2 mi ESE 18.4 mph - N/A Snow Light Snow
4:35 AM 23.0 °F 8.3 °F 19.4 °F 86% 29.92 in 1.0 mi ESE 19.6 mph - N/A Snow Light Snow
4:55 AM 23.0 °F 8.3 °F 19.4 °F 86% 29.92 in 0.8 mi ESE 19.6 mph - N/A Snow Light Snow
5:15 AM 23.0 °F 8.0 °F 19.4 °F 86% 29.91 in 1.0 mi ESE 20.7 mph - N/A Snow Light Snow
5:35 AM 23.0 °F 6.9 °F 19.4 °F 86% 29.91 in 1.0 mi ESE 24.2 mph - N/A Snow Light Snow
6:15 AM 23.0 °F 7.6 °F 19.4 °F 86% 29.90 in 2.5 mi ESE 21.9 mph 28.8 mph N/A   Mostly Cloudy
6:35 AM 23.0 °F 8.3 °F 19.4 °F 86% 29.90 in - ESE 19.6 mph 26.5 mph N/A   Unknown
6:55 AM 23.0 °F 7.6 °F 19.4 °F 86% 29.90 in 2.0 mi ESE 21.9 mph 28.8 mph N/A Rain Light Freezing Rain
7:15 AM 23.0 °F 7.6 °F 21.2 °F 93% 29.90 in 0.8 mi ESE 21.9 mph - N/A Snow Light Snow
7:35 AM 23.0 °F 8.3 °F 21.2 °F 93% 29.91 in 1.5 mi ESE 19.6 mph 26.5 mph N/A Snow Light Snow
7:55 AM 23.0 °F 8.7 °F 19.4 °F 86% 29.92 in 2.5 mi ESE 18.4 mph - N/A Rain Light Freezing Rain
8:15 AM 23.0 °F 8.3 °F 19.4 °F 86% 29.92 in 3.0 mi ESE 19.6 mph 26.5 mph N/A Rain Light Freezing Rain
8:35 AM 23.0 °F 7.2 °F 19.4 °F 86% 29.91 in 3.0 mi ESE 23.0 mph - N/A Rain Light Freezing Rain
8:55 AM 23.0 °F 7.2 °F 19.4 °F 86% 29.90 in 1.8 mi ESE 23.0 mph 29.9 mph N/A Rain Light Freezing Rain
9:15 AM 24.8 °F 9.3 °F 21.2 °F 86% 29.90 in 2.5 mi ESE 24.2 mph 29.9 mph N/A Rain Light Freezing Rain
9:35 AM 24.8 °F 10.0 °F 21.2 °F 86% 29.90 in 2.0 mi ESE 21.9 mph 28.8 mph N/A Rain Light Freezing Rain
9:55 AM 24.8 °F 11.1 °F 21.2 °F 86% 29.91 in 3.0 mi ESE 18.4 mph 24.2 mph N/A Rain Light Freezing Rain
10:15 AM 24.8 °F 10.7 °F 21.2 °F 86% 29.90 in 5.0 mi ESE 19.6 mph - N/A Rain Light Freezing Rain
10:35 AM 26.6 °F 12.0 °F 21.2 °F 80% 29.90 in 9.0 mi ESE 23.0 mph 29.9 mph N/A   Overcast
10:55 AM 26.6 °F 12.7 °F 21.2 °F 80% 29.90 in 9.0 mi ESE 20.7 mph 28.8 mph N/A   Overcast
11:15 AM 26.6 °F 12.4 °F 21.2 °F 80% 29.90 in 9.0 mi ESE 21.9 mph 28.8 mph N/A   Overcast
11:35 AM 26.6 °F 13.4 °F 21.2 °F 80% 29.90 in 9.0 mi ESE 18.4 mph 28.8 mph N/A   Overcast
11:55 AM 26.6 °F 13.4 °F 21.2 °F 80% 29.90 in 9.0 mi ESE 18.4 mph 28.8 mph N/A   Overcast
12:15 PM 26.6 °F 11.1 °F 23.0 °F 86% 29.89 in 9.0 mi ESE 26.5 mph - N/A   Overcast
12:55 PM 28.4 °F 14.4 °F 23.0 °F 80% 29.89 in 9.0 mi ESE 23.0 mph - N/A   Overcast
1:15 PM 28.4 °F 15.4 °F 23.0 °F 80% 29.88 in 10.0 mi ESE 19.6 mph 27.6 mph N/A   Overcast
1:35 PM 28.4 °F 14.7 °F 23.0 °F 80% 29.87 in 9.0 mi ESE 21.9 mph - N/A   Overcast
1:55 PM 28.4 °F 15.1 °F 23.0 °F 80% 29.87 in 10.0 mi ESE 20.7 mph 27.6 mph N/A   Overcast
2:15 PM 28.4 °F 15.1 °F 23.0 °F 80% 29.87 in 10.0 mi ESE 20.7 mph - N/A   Overcast
2:35 PM 28.4 °F 16.6 °F 23.0 °F 80% 29.88 in 10.0 mi ESE 16.1 mph 25.3 mph N/A   Overcast
2:55 PM 28.4 °F 16.2 °F 23.0 °F 80% 29.88 in 10.0 mi ESE 17.3 mph - N/A   Overcast
3:15 PM 28.4 °F 17.0 °F 23.0 °F 80% 29.88 in 10.0 mi ESE 15.0 mph 23.0 mph N/A   Overcast
3:35 PM 30.2 °F 19.3 °F 23.0 °F 75% 29.90 in 10.0 mi ESE 15.0 mph - N/A   Overcast
3:55 PM 30.2 °F 19.8 °F 23.0 °F 75% 29.90 in 10.0 mi ESE 13.8 mph 20.7 mph N/A   Overcast
4:15 PM 30.2 °F 19.3 °F 23.0 °F 75% 29.90 in 10.0 mi ESE 15.0 mph - N/A   Overcast
4:35 PM 30.2 °F 19.3 °F 23.0 °F 75% 29.90 in 10.0 mi ESE 15.0 mph - N/A   Overcast
4:55 PM 30.2 °F 19.8 °F 23.0 °F 75% 29.90 in 10.0 mi ESE 13.8 mph 24.2 mph N/A   Overcast
5:15 PM 30.2 °F 20.8 °F 23.0 °F 75% 29.92 in 10.0 mi ESE 11.5 mph 17.3 mph N/A   Overcast
5:35 PM 30.2 °F 20.8 °F 23.0 °F 75% 29.92 in 10.0 mi ESE 11.5 mph - N/A   Overcast
5:55 PM 28.4 °F 17.5 °F 23.0 °F 80% 29.92 in 10.0 mi East 13.8 mph - N/A   Overcast
6:15 PM 28.4 °F 19.1 °F 21.2 °F 74% 29.93 in 10.0 mi East 10.4 mph - N/A   Overcast
6:35 PM 28.4 °F 19.1 °F 21.2 °F 74% 29.93 in 10.0 mi East 10.4 mph - N/A   Overcast
6:55 PM 28.4 °F 19.1 °F 21.2 °F 74% 29.94 in 10.0 mi East 10.4 mph - N/A   Overcast
7:15 PM 28.4 °F 18.5 °F 21.2 °F 74% 29.94 in 10.0 mi East 11.5 mph - N/A   Overcast
7:35 PM 28.4 °F 17.5 °F 21.2 °F 74% 29.94 in 7.0 mi East 13.8 mph - N/A Rain Light Freezing Rain
7:55 PM 28.4 °F 16.6 °F 21.2 °F 74% 29.94 in 4.0 mi ESE 16.1 mph - N/A Snow Light Snow
8:35 PM 26.6 °F 21.2 °F 24.8 °F 93% 29.98 in 0.2 mi SE 4.6 mph - N/A Snow Light Snow
8:55 PM 26.6 °F 20.0 °F 24.8 °F 93% 29.98 in 5.0 mi ESE 5.8 mph - N/A   Overcast
9:15 PM 26.6 °F 21.2 °F 23.0 °F 86% 29.99 in 7.0 mi ESE 4.6 mph - N/A Snow Light Snow
9:35 PM 26.6 °F - 23.0 °F 86% 30.00 in 5.0 mi Calm Calm - N/A Snow Light Snow
9:55 PM 26.6 °F 19.1 °F 23.0 °F 86% 29.99 in 6.0 mi East 6.9 mph - N/A Rain Light Freezing Rain
10:15 PM 26.6 °F 20.0 °F 24.8 °F 93% 29.98 in 3.0 mi East 5.8 mph - N/A Snow Light Snow
10:35 PM 26.6 °F 20.0 °F 24.8 °F 93% 29.98 in 3.0 mi East 5.8 mph - N/A Snow Light Snow
10:55 PM 26.6 °F 20.0 °F 24.8 °F 93% 29.98 in 3.0 mi ENE 5.8 mph - N/A Snow Light Snow
11:15 PM 26.6 °F 21.2 °F 24.8 °F 93% 29.97 in 2.5 mi ENE 4.6 mph - N/A Rain Light Freezing Rain
11:35 PM 26.6 °F 21.2 °F 24.8 °F 93% 29.97 in 1.2 mi East 4.6 mph - N/A Snow Light Snow
11:55 PM 26.6 °F 19.1 °F 24.8 °F 93% 29.95 in 2.0 mi East 6.9 mph - N/A Snow Light Snow